Pampa, TX

6:34 PM CDT on April 30, 2017 (GMT -0500)
Perry Lefors

Weather History for KPPA - May, 2013

Change the Weather History Date:

Sunday, May 19, 2013

  Actual Average Record
Temperature  
Mean Temperature 70 °F -  
Max Temperature 84 °F 79 °F 98 °F (2004)
Min Temperature 57 °F 52 °F 36 °F (1971)
Cooling Degree Days 6    
Growing Degree Days 20 (Base 50)    
Moisture  
Dew Point 39 °F    
Average Humidity 37    
Maximum Humidity 89    
Minimum Humidity 12    
Precipitation  
Precipitation 0.00 in - - ()
Sea Level Pressure  
Sea Level Pressure 29.72 in    
Wind  
Wind Speed 11 mph (West)    
Max Wind Speed 23 mph    
Max Gust Speed 34 mph    
Visibility 10 miles    
Events      
Averages and records for this station are not official NWS values.
T = Trace of Precipitation, MM = Missing Value Source: NWS Daily Summary

Daily Weather History Graph

Daily Weather History Graph

Search for Another Location

Airport or City:

Trip Planner

Search our weather history database for the weather conditions in past years. The results will help you decide how hot, cold, wet, or windy it might be!

Date:

Astronomy

May. 19, 2013 Rise Set
Actual Time 6:35 AM CDT 8:45 PM CDT
Civil Twilight 6:07 AM CDT 9:14 PM CDT
Nautical Twilight 5:32 AM CDT 9:49 PM CDT
Astronomical Twilight 4:54 AM CDT 10:27 PM CDT
Moon 3:03 PM CDT (5/19) 2:48 AM CDT (5/19)
Length of Visible Light 15h 06m
Length of Day
14h 09m
Waxing Gibbous, 65% of the Moon is Illuminated
May 19
Waxing Gibbous
May 24
Full
May 31
Last Quarter
Jun 8
New
Jun 16
First Quarter

Hourly Weather History & Observations

Time (CDT) Temp. Dew Point Humidity Pressure Visibility Wind Dir Wind Speed Gust Speed Precip Events Conditions
12:15 AM 70.9 °F 56.3 °F 60% 29.74 in 10.0 mi SE 15.0 mph - N/A   Clear
12:35 AM 69.3 °F 56.3 °F 63% 29.73 in 10.0 mi SSE 12.7 mph 16.1 mph N/A   Clear
1:15 AM 67.1 °F 57.2 °F 70% 29.73 in 10.0 mi SSE 10.4 mph - N/A   Clear
1:35 AM 64.4 °F 56.5 °F 75% 29.73 in 10.0 mi SSE 8.1 mph - N/A   Clear
1:55 AM 61.9 °F 55.9 °F 81% 29.72 in 10.0 mi South 6.9 mph - N/A   Clear
2:15 AM 60.3 °F 55.4 °F 84% 29.72 in 7.0 mi WSW 3.5 mph - N/A   Clear
2:55 AM 58.8 °F 55.4 °F 88% 29.70 in 7.0 mi South 6.9 mph - N/A   Clear
3:15 AM 58.1 °F 54.7 °F 88% 29.70 in 7.0 mi SSW 10.4 mph - N/A   Clear
3:35 AM 59.0 °F 55.8 °F 89% 29.70 in 7.0 mi SW 9.2 mph - N/A   Clear
3:55 AM 60.1 °F 56.3 °F 87% 29.69 in 7.0 mi SW 9.2 mph - N/A   Clear
4:15 AM 59.7 °F 54.3 °F 82% 29.69 in 10.0 mi WSW 9.2 mph - N/A   Clear
4:55 AM 61.0 °F 50.4 °F 68% 29.70 in 10.0 mi West 8.1 mph - N/A   Clear
5:15 AM 61.0 °F 45.9 °F 58% 29.70 in 10.0 mi West 9.2 mph - N/A   Clear
5:35 AM 58.5 °F 42.6 °F 56% 29.70 in 10.0 mi West 6.9 mph - N/A   Clear
5:55 AM 59.9 °F 40.1 °F 48% 29.71 in 10.0 mi West 10.4 mph - N/A   Clear
6:15 AM 59.9 °F 37.6 °F 44% 29.72 in 10.0 mi WNW 9.2 mph - N/A   Clear
6:35 AM 59.2 °F 40.5 °F 50% 29.71 in 10.0 mi NW 5.8 mph - N/A   Clear
6:55 AM 57.7 °F 38.7 °F 49% 29.72 in 10.0 mi West 9.2 mph - N/A   Clear
7:15 AM 60.1 °F 34.5 °F 38% 29.73 in 10.0 mi West 10.4 mph - N/A   Clear
7:35 AM 59.9 °F 33.3 °F 37% 29.73 in 10.0 mi West 8.1 mph - N/A   Clear
7:55 AM 63.1 °F 32.2 °F 31% 29.73 in 10.0 mi West 8.1 mph - N/A   Clear
8:15 AM 65.5 °F 31.6 °F 28% 29.73 in 10.0 mi West 9.2 mph - N/A   Clear
8:35 AM 68.0 °F 31.8 °F 26% 29.74 in 10.0 mi WNW 10.4 mph - N/A   Clear
8:55 AM 70.9 °F 32.0 °F 24% 29.74 in 10.0 mi WNW 11.5 mph - N/A   Clear
9:15 AM 71.8 °F 31.8 °F 23% 29.75 in 10.0 mi NW 15.0 mph 21.9 mph N/A   Clear
9:55 AM 71.8 °F 44.2 °F 37% 29.75 in 10.0 mi NW 15.0 mph - N/A   Clear
10:15 AM 73.2 °F 46.6 °F 39% 29.75 in 10.0 mi NW 12.7 mph - N/A   Clear
10:35 AM 74.5 °F 47.3 °F 38% 29.75 in 10.0 mi WNW 12.7 mph - N/A   Clear
10:55 AM 74.1 °F 47.8 °F 39% 29.75 in 10.0 mi NW 11.5 mph 18.4 mph N/A   Clear
11:15 AM 75.6 °F 48.4 °F 38% 29.75 in 10.0 mi NW 12.7 mph 18.4 mph N/A   Clear
11:35 AM 75.9 °F 46.6 °F 35% 29.75 in 10.0 mi WNW 12.7 mph 17.3 mph N/A   Clear
11:55 AM 76.5 °F 45.3 °F 33% 29.75 in 10.0 mi West 12.7 mph 18.4 mph N/A   Clear
12:15 PM 78.1 °F 44.2 °F 30% 29.75 in 10.0 mi West 10.4 mph 19.6 mph N/A   Clear
12:35 PM 78.8 °F 43.7 °F 29% 29.74 in 10.0 mi NW 10.4 mph 18.4 mph N/A   Clear
12:55 PM 79.7 °F 41.5 °F 26% 29.74 in 10.0 mi WNW 18.4 mph 24.2 mph N/A   Clear
1:15 PM 80.4 °F 40.3 °F 24% 29.74 in 10.0 mi WNW 16.1 mph 23.0 mph N/A   Clear
1:35 PM 80.8 °F 39.2 °F 23% 29.74 in 10.0 mi West 13.8 mph 23.0 mph N/A   Clear
2:15 PM 81.9 °F 38.1 °F 21% 29.72 in 10.0 mi WNW 13.8 mph 21.9 mph N/A   Scattered Clouds
2:55 PM 82.6 °F 36.5 °F 19% 29.72 in 10.0 mi WNW 12.7 mph 24.2 mph N/A   Scattered Clouds
3:15 PM 83.5 °F 37.0 °F 19% 29.72 in 10.0 mi West 20.7 mph 24.2 mph N/A   Scattered Clouds
3:35 PM 83.8 °F 36.0 °F 18% 29.71 in 10.0 mi West 11.5 mph 25.3 mph N/A   Scattered Clouds
3:55 PM 84.2 °F 35.1 °F 17% 29.71 in 10.0 mi WNW 18.4 mph 34.5 mph N/A   Scattered Clouds
4:15 PM 84.6 °F 33.4 °F 16% 29.70 in 10.0 mi West 13.8 mph 20.7 mph N/A   Scattered Clouds
4:35 PM 83.8 °F 32.4 °F 16% 29.70 in 10.0 mi WNW 12.7 mph 20.7 mph N/A   Scattered Clouds
4:55 PM 84.6 °F 31.1 °F 15% 29.69 in 10.0 mi West 15.0 mph 20.7 mph N/A   Scattered Clouds
5:15 PM 84.7 °F 30.2 °F 14% 29.69 in 10.0 mi West 15.0 mph 20.7 mph N/A   Clear
5:35 PM 83.5 °F 30.9 °F 15% 29.68 in 10.0 mi West 12.7 mph 20.7 mph N/A   Scattered Clouds
5:55 PM 82.8 °F 31.3 °F 16% 29.68 in 10.0 mi SW 11.5 mph 16.1 mph N/A   Scattered Clouds
6:15 PM 84.4 °F 29.8 °F 14% 29.67 in 10.0 mi West 16.1 mph - N/A   Clear
6:35 PM 84.4 °F 27.3 °F 13% 29.67 in 10.0 mi WSW 10.4 mph - N/A   Clear
6:55 PM 84.4 °F 25.3 °F 12% 29.67 in 10.0 mi WSW 15.0 mph 20.7 mph N/A   Clear
7:15 PM 81.3 °F 25.0 °F 13% 29.67 in 10.0 mi WSW 11.5 mph - N/A   Clear
7:35 PM 79.5 °F 28.2 °F 15% 29.68 in 10.0 mi WSW 5.8 mph - N/A   Clear
7:55 PM 76.3 °F 31.5 °F 19% 29.68 in 10.0 mi SW 6.9 mph - N/A   Clear
8:15 PM 75.4 °F 31.1 °F 20% 29.69 in 10.0 mi WNW 4.6 mph - N/A   Clear
8:35 PM 80.8 °F 23.4 °F 12% 29.69 in 10.0 mi SW 17.3 mph 32.2 mph N/A   Scattered Clouds
8:55 PM 77.0 °F 23.4 °F 14% 29.70 in 10.0 mi WSW 9.2 mph - N/A   Clear
9:15 PM 75.9 °F 32.7 °F 21% 29.73 in 10.0 mi NNW 23.0 mph 27.6 mph N/A   Clear
9:35 PM 73.4 °F 33.6 °F 23% 29.73 in 10.0 mi NNE 11.5 mph 20.7 mph N/A   Clear
9:55 PM 72.1 °F 32.9 °F 24% 29.74 in 10.0 mi NNE 8.1 mph - N/A   Clear
10:15 PM 69.3 °F 34.0 °F 27% 29.76 in 10.0 mi NE 11.5 mph - N/A   Clear
10:35 PM 65.5 °F 34.7 °F 32% 29.76 in 10.0 mi East 8.1 mph - N/A   Clear
11:15 PM 63.9 °F 34.9 °F 34% 29.77 in 10.0 mi ESE 8.1 mph - N/A   Clear
11:35 PM 62.2 °F 34.9 °F 36% 29.76 in 10.0 mi SE 5.8 mph - N/A   Clear
11:55 PM 63.5 °F 34.7 °F 34% 29.76 in 10.0 mi ESE 3.5 mph - N/A   Clear